Location: Home
(42.5358°N, 72.7383°W)
Time: 17:32:16
(UTC-05:00)

A-11 Canister half - Pass Details

Date: 05 December 2021
Orbit: 1516 x 1684 km, 47.2° (Epoch: 18 January)

Event Time Altitude Azimuth Distance (km) Brightness Sun altitude
Rises 11:57:14 0° 295° (WNW) 4,878 11.4 24.9°
Reaches altitude 10° 12:00:21 10° 294° (WNW) 3,907 11.0 24.9°
Maximum altitude 12:10:24 76° 211° (SSW) 1,721 10.0 24.7°
Drops below altitude 10° 12:20:32 10° 128° (SE) 3,938 11.6 24.4°
Sets 12:23:41 0° 126° (SE) 4,918 12.0 24.3°
